Regional Weather Roundup
Issued by NWS Goodland, KS

Home | Current Version | Previous Version | Graphics & Text | Print | Product List | Glossary On
Versions: 1 2 3 4 5 6 7 8 9 10 11 12 13 14 15 16 17 18 19 20 21 22 23 24 25 26 27 28 29 30 31 32 33 34 35 36 37 38 39 40 41 42 43 44 45 46 47 48 49 50
000
ASUS43 KGLD 061208
RWRGLD

GOODLAND FORECAST AREA HOURLY WEATHER ROUNDUP
NATIONAL WEATHER SERVICE GOODLAND KS
600 AM MDT FRI MAY 06 2016

...OFFICIAL OBSERVATIONS...

CITY           SKY/WX    TMP DP  RH WIND       PRES   REMARKS
GOODLAND KS    CLOUDY    54  45  71 S20       29.98S
HILL CITY KS   CLOUDY    55  44  66 VRB3      30.02R
IMPERIAL NEB   PTCLDY    54  45  71 SE5       29.98R
MCCOOK NEB     PTCLDY    53  45  74 SE6       29.99R
AKRON CO       CLOUDY    45  42  89 S6        29.98R
BURLINGTON CO  CLOUDY    50  44  80 S16       29.99S
LIMON CO       CLOUDY    39  39 100 CALM      30.02R
$$

...UNOFFICIAL OBSERVATIONS...

CITY           SKY/WX    TMP DP  RH WIND       PRES   REMARKS
COLBY KS       CLEAR     54  48  82 S14       30.01S
LENORA KS        N/A     53  32  45 MISG        N/A
NORTON KS      CLEAR     55  39  54 S8        30.00S
SHARON SPRINGS   N/A     52  47  82 S16         N/A
KIT CARSON CO    N/A     50  45  81 MISG        N/A
YUMA CO          N/A     51  46  82 S9          N/A
$$



USA.gov is the U.S. government's official web portal to all federal, state and local government web resources and services.